Torna al catalogo

FENGYUN 1C DEB

AttivoLEO
NORAD 30061·DEBRIS·🇨🇳 China

Lanciato May 10, 1999 da Taiyuan Satellite Launch Center

Loading…

Prossimi Passaggi (prossime 24 ore)

TLE

AggiornatoSource: Space-Track

Epoca: Sep 14, 2026, 10:44 UTC

1 30061U 99025PN  26257.44745197  .00001117  00000-0  12757-2 0  9992
2 30061 101.9032  63.9136 0364061 344.0651  38.3540 13.47873279958128

Traccia FENGYUN 1C DEB in tempo reale con AllMySat

Download on the App Store